Regional Weather Roundup
Issued by NWS Charleston, WV

Home | Current Version | Previous Version | Graphics & Text | Print | Product List | Glossary On
Versions: 1 2 3 4 5 6 7 8 9 10 11 12 13 14 15 16 17 18 19 20 21 22 23 24 25 26 27
000
ASUS41 KRLX 241610
RWRRLX
West Virginia Regional Weather Roundup
National Weather Service Charleston WV
1200 PM EDT THU APR 24 2014

Note: "fair" indicates few or no clouds below 12,000 feet with no
significant weather and/or obstructions to visibility.

WVZ003-241700-
Northern Panhandle of West Virginia

CITY           SKY/WX    TMP DP  RH WIND       PRES   REMARKS
WHEELING       PTSUNNY   47  20  34 MISG      30.15F
$$

WVZ009-241700-
Northwest West Virginia

CITY           SKY/WX    TMP DP  RH WIND       PRES   REMARKS
PARKERSBURG    SUNNY     54  11  18 SE10G16   30.15F
$$

WVZ006-241700-
Western West Virginia

CITY           SKY/WX    TMP DP  RH WIND       PRES   REMARKS
HUNTINGTON     MOSUNNY   56  24  29 E9        30.09F
$$

WVZ015-241700-
West Central West Virginia

CITY           SKY/WX    TMP DP  RH WIND       PRES   REMARKS
CHARLESTON     MOSUNNY   57  23  26 NE8       30.10F
$$

WVZ031-241700-
North Central West Virginia

CITY           SKY/WX    TMP DP  RH WIND       PRES   REMARKS
CLARKSBURG     MOSUNNY   51  24  34 VRB6      30.13F
MORGANTOWN     MOSUNNY   49  18  29 NE8       30.16F
$$

WVZ035-042-045-241700-
South Central West Virginia

CITY           SKY/WX    TMP DP  RH WIND       PRES   REMARKS
BECKLEY        CLOUDY    54  20  26 VRB5      30.10F
BLUEFIELD      CLOUDY    58  27  30 E6        30.09F
LEWISBURG      CLOUDY    49  28  43 SW5       30.12F
$$

WVZ047-241700-
Northern Mountains of West Virginia

CITY           SKY/WX    TMP DP  RH WIND       PRES   REMARKS
ELKINS         MOSUNNY   51  22  31 VRB5      30.11F
$$

WVZ052-241700-
Eastern Panhandle of West Virginia

CITY           SKY/WX    TMP DP  RH WIND       PRES   REMARKS
MARTINSBURG    SUNNY     55  17  22 N10G18    30.12F
PETERSBURG     PTSUNNY   57  31  36 SE6       30.14F
$$



USA.gov is the U.S. government's official web portal to all federal, state and local government web resources and services.